Location: Stuttgart
(48.8069°N, 9.1544°E)
Time: 20:31:42
(UTC+01:00)

ISS - Pass Details

Date: 05 January 2018
Orbit: 402 x 407 km, 51.6° (Epoch: 20 January)

Event Time Altitude Azimuth Distance (km) Brightness Sun altitude
Exits shadow 06:03:57 48° 29° (NNE) 542 -3.2 -20.8°
Drops below altitude 10° 06:06:41 10° 70° (ENE) 1,471 -0.2 -20.3°
Sets 06:08:48 0° 75° (ENE) 2,333 1.1 -20.0°
